Back to catalog

TIANQI 25

AliveCommunicationsLEO
NORAD 59909·PAYLOAD·🇨🇳 China

Launched May 29, 2024 from Yellow Sea Launch Area

Loading…

Next Passes (next 24 hours)

TLE

FreshSource: Space-Track

Epoch: Sep 14, 2026, 10:09 UTC

1 59909U 24102A   26257.42328918 -.00000035  00000-0  63892-4 0  9991
2 59909  44.9760 224.8564 0012887 300.7924  59.1640 13.99192410117403

Track TIANQI 25 in real time with AllMySat

Download on the App Store